Location: Asheville, NC
(35.6000°N, 82.5500°W)
Time: 22:48:29

FO-29 - Pass Details

Date: 09 March 2018
Orbit: 800 x 1321 km, 98.5° (Epoch: 18 March)

Event Time Altitude Azimuth Distance (km) Brightness Sun altitude
Rises 21:12:12 0° 3° (N) 3,943 12.9 -32.7°
Reaches altitude 10° 21:14:50 10° 356° (N) 3,051 12.3 -33.2°
Maximum altitude 21:21:16 40° 291° (WNW) 1,749 11.1 -34.4°
Drops below altitude 10° 21:28:14 10° 225° (SW) 3,296 12.4 -35.7°
Sets 21:31:12 0° 218° (SW) 4,291 13.0 -36.3°
